DEHKP EDWN-EDXD

Flight info

Callsign DEHKP
Flight time 0h 23m
Altitude 2500
Route VFR
Aircraft P28A/L-S/L

Departure

Time 2026-04-25 18:38
Airport Flugplatz Nordhorn-Lingen (EDWN)

Arrival

Time 2026-04-25 19:02
Airport Bohmte-Bad Essen Airfield (EDXD)
Time Latitude Longitude Altitude Speed Heading
2026-04-25 18:12 52.45728 7.17447 92 ft 0 kts 232°
2026-04-25 18:35 52.45704 7.17457 90 ft 7 kts 160°
2026-04-25 18:35 52.45659 7.17502 89 ft 10 kts 148°
2026-04-25 18:35 52.45606 7.17555 90 ft 8 kts 148°
2026-04-25 18:35 52.45569 7.17593 90 ft 4 kts 148°
2026-04-25 18:36 52.45536 7.17627 92 ft 11 kts 122°
2026-04-25 18:36 52.45556 7.17694 93 ft 2 kts 92°
2026-04-25 18:36 52.45556 7.17697 93 ft 0 kts 101°
2026-04-25 18:37 52.45547 7.17713 92 ft 5 kts 137°
2026-04-25 18:37 52.45540 7.17778 91 ft 9 kts 54°
2026-04-25 18:37 52.45665 7.18072 87 ft 56 kts 55°
2026-04-25 18:38 52.45928 7.18710 217 ft 64 kts 57°
2026-04-25 18:38 52.46128 7.19330 431 ft 70 kts 55°
2026-04-25 18:38 52.46423 7.20117 568 ft 89 kts 52°
2026-04-25 18:38 52.46707 7.20940 820 ft 82 kts 50°
2026-04-25 18:39 52.46868 7.21858 973 ft 94 kts 85°
2026-04-25 18:39 52.46545 7.22822 1109 ft 106 kts 137°
2026-04-25 18:39 52.46046 7.23639 1323 ft 99 kts 122°
2026-04-25 18:39 52.45654 7.24582 1475 ft 101 kts 116°
2026-04-25 18:40 52.45310 7.25571 1652 ft 101 kts 108°
2026-04-25 18:40 52.45018 7.26603 1852 ft 99 kts 107°
2026-04-25 18:40 52.44741 7.27634 2034 ft 98 kts 103°
2026-04-25 18:40 52.44598 7.28697 2205 ft 95 kts 89°
2026-04-25 18:41 52.44550 7.29766 2397 ft 91 kts 85°
2026-04-25 18:41 52.44536 7.30799 2567 ft 92 kts 83°
2026-04-25 18:41 52.44532 7.31848 2740 ft 93 kts 83°
2026-04-25 18:41 52.44530 7.32917 2906 ft 97 kts 85°
2026-04-25 18:42 52.44485 7.34044 3016 ft 105 kts 85°
2026-04-25 18:42 52.44451 7.34876 2999 ft 114 kts 86°
2026-04-25 18:42 52.44376 7.36655 3032 ft 119 kts 86°
2026-04-25 18:42 52.44341 7.38009 3039 ft 120 kts 84°
2026-04-25 18:43 52.44333 7.39379 3045 ft 121 kts 84°
2026-04-25 18:43 52.44291 7.40765 3060 ft 121 kts 87°
2026-04-25 18:43 52.44231 7.42153 3070 ft 121 kts 88°
2026-04-25 18:43 52.44177 7.43540 3040 ft 123 kts 85°
2026-04-25 18:44 52.44134 7.44940 3044 ft 122 kts 85°
2026-04-25 18:44 52.44074 7.46342 3022 ft 124 kts 88°
2026-04-25 18:44 52.43978 7.47762 2986 ft 126 kts 91°
2026-04-25 18:44 52.43865 7.49175 2953 ft 125 kts 92°
2026-04-25 18:45 52.43719 7.50565 2937 ft 123 kts 95°
2026-04-25 18:45 52.43597 7.51925 2933 ft 119 kts 91°
2026-04-25 18:45 52.43500 7.53260 2951 ft 118 kts 90°
2026-04-25 18:45 52.43397 7.54584 2957 ft 118 kts 94°
2026-04-25 18:46 52.43236 7.55911 2966 ft 119 kts 97°
2026-04-25 18:46 52.43084 7.57254 2958 ft 121 kts 94°
2026-04-25 18:46 52.42929 7.58607 2960 ft 121 kts 94°
2026-04-25 18:46 52.42780 7.59966 2959 ft 121 kts 94°
2026-04-25 18:47 52.42638 7.61328 2962 ft 121 kts 93°
2026-04-25 18:47 52.42540 7.62696 2953 ft 120 kts 89°
2026-04-25 18:47 52.42455 7.64043 2986 ft 118 kts 91°
2026-04-25 18:47 52.42361 7.65380 2996 ft 119 kts 89°
2026-04-25 18:48 52.42284 7.66719 3021 ft 118 kts 88°
2026-04-25 18:48 52.42221 7.68066 3020 ft 119 kts 86°
2026-04-25 18:48 52.42163 7.69412 3031 ft 119 kts 86°
2026-04-25 18:48 52.42129 7.70775 3020 ft 120 kts 84°
2026-04-25 18:49 52.42094 7.72137 3016 ft 120 kts 86°
2026-04-25 18:49 52.42068 7.73509 3014 ft 120 kts 84°
2026-04-25 18:49 52.42054 7.74861 3032 ft 118 kts 82°
2026-04-25 18:49 52.42066 7.76205 3021 ft 118 kts 79°
2026-04-25 18:50 52.42119 7.77549 3002 ft 118 kts 78°
2026-04-25 18:50 52.42210 7.78880 3000 ft 116 kts 72°
2026-04-25 18:50 52.42378 7.80180 2946 ft 119 kts 70°
2026-04-25 18:50 52.42551 7.81509 2894 ft 120 kts 70°
2026-04-25 18:51 52.42612 7.82908 2849 ft 124 kts 83°
2026-04-25 18:51 52.42576 7.83851 2810 ft 126 kts 89°
2026-04-25 18:51 52.42426 7.85755 2730 ft 126 kts 92°
2026-04-25 18:51 52.42275 7.87189 2631 ft 128 kts 95°
2026-04-25 18:52 52.42131 7.88640 2521 ft 131 kts 92°
2026-04-25 18:52 52.42012 7.90107 2482 ft 128 kts 91°
2026-04-25 18:52 52.41888 7.91537 2468 ft 125 kts 91°
2026-04-25 18:52 52.41778 7.92909 2453 ft 121 kts 90°
2026-04-25 18:53 52.41681 7.94286 2390 ft 122 kts 89°
2026-04-25 18:53 52.41582 7.95682 2340 ft 124 kts 90°
2026-04-25 18:53 52.41426 7.97083 2282 ft 127 kts 97°
2026-04-25 18:53 52.41239 7.98501 2231 ft 126 kts 96°
2026-04-25 18:54 52.40903 8.01300 2170 ft 124 kts 89°
2026-04-25 18:54 52.40820 8.02701 2172 ft 122 kts 88°
2026-04-25 18:54 52.40736 8.04084 2169 ft 124 kts 90°
2026-04-25 18:55 52.40575 8.05480 2160 ft 126 kts 95°
2026-04-25 18:55 52.40401 8.06892 2174 ft 127 kts 94°
2026-04-25 18:55 52.40229 8.08308 2155 ft 129 kts 96°
2026-04-25 18:55 52.40029 8.09758 2091 ft 131 kts 97°
2026-04-25 18:56 52.39824 8.11228 2069 ft 133 kts 98°
2026-04-25 18:56 52.39612 8.12679 2031 ft 131 kts 99°
2026-04-25 18:56 52.39277 8.14089 1954 ft 136 kts 109°
2026-04-25 18:56 52.38823 8.15465 1901 ft 138 kts 115°
2026-04-25 18:57 52.38303 8.16796 1822 ft 139 kts 121°
2026-04-25 18:57 52.37750 8.18090 1765 ft 139 kts 121°
2026-04-25 18:57 52.37200 8.19372 1671 ft 136 kts 122°
2026-04-25 18:57 52.37016 8.19771 1635 ft 135 kts 123°
2026-04-25 18:58 52.36095 8.21857 1381 ft 134 kts 122°
2026-04-25 18:58 52.35118 8.24360 1277 ft 128 kts 113°
2026-04-25 18:58 52.34714 8.25612 1236 ft 126 kts 112°
2026-04-25 18:59 52.33919 8.28233 1054 ft 126 kts 110°
2026-04-25 18:59 52.33367 8.30858 983 ft 120 kts 94°
2026-04-25 19:00 52.33103 8.33238 962 ft 92 kts 90°
2026-04-25 19:00 52.33117 8.34225 848 ft 82 kts 56°
2026-04-25 19:01 52.33941 8.34912 723 ft 64 kts
2026-04-25 19:01 52.34401 8.34970 639 ft 64 kts 353°
2026-04-25 19:01 52.34790 8.34736 467 ft 61 kts 319°
2026-04-25 19:01 52.34953 8.34123 296 ft 59 kts 284°
2026-04-25 19:02 52.35097 8.33020 155 ft 36 kts 282°
2026-04-25 19:02 52.35130 8.32858 153 ft 7 kts 356°
2026-04-25 19:02 52.35179 8.32880 152 ft 8 kts 20°
2026-04-25 19:03 52.35225 8.32904 153 ft 5 kts 15°
2026-04-25 19:03 52.35248 8.32839 153 ft 4 kts 351°
2026-04-25 19:03 52.35253 8.32859 153 ft 2 kts 182°
2026-04-25 19:04 52.35251 8.32858 153 ft 0 kts 209°